Weather in New York

United States     40˚42′57″N   74˚00′10″W
temp.,
°C
wind,
m/s
gust,
m/s
humid.,
%
clouds,
%
prec.,
mm/h
press.,
hPa
HPBL,
m
28 november, sat
sat2801:00+10˚wnw25621 0.0 1015232
04:00+10˚wnw235967 0.0 1015207
07:00+9˚wnw236070 0.0 1015186
10:00+11˚wsw345878 0.0 1016538
13:00+13˚w585350 0.1 10151441
16:00+12˚wnw584966 0.1 10161662
19:00+9˚nnw575641 0.1 1018975
22:00+7˚nw48520 0.0 1020564
29 november, sun
sun2901:00+7˚nw47540 0.0 1020438
04:00+6˚w35540 0.0 1020336
07:00+6˚w24590 0.0 1021271
10:00+8˚wsw23470 0.0 1021340
13:00+11˚sw35380 0.0 1020569
16:00+11˚wsw35410 0.0 1020557
19:00+10˚sw374613 0.0 1021445
22:00+9˚ssw375867 0.0 1020403
30 november, mon
mon3001:00+9˚ssw376367 0.0 1019322
04:00+10˚sse3669100 0.0 1017252
07:00+10˚ese2477100 0.0 1015119
10:00+13˚ese51277100 0.3 1011675
13:00+14˚ese102093100 5.6 10031350
16:00+15˚sse122091100 10.3 997892
19:00+16˚s6139397 11.2 998633
22:00+14˚sw489257 0.1 999376
1 december, tue
tue101:00+12˚sw258628 0.1 1000195
04:00+11˚sw12840 0.0 100038
07:00+11˚ne238241 0.0 998104
10:00+12˚ne248195 0.6 996233
13:00+12˚sw696984 1.3 994830
16:00+9˚sw9137092 0.3 9961276
19:00+7˚sw8136996 0.4 10011215
22:00+6˚wsw81261100 0.0 10041095
2 december, wed
wed201:00+4˚wsw8126066 0.0 10071105
04:00+4˚wsw7125816 0.0 10101234
07:00+4˚wsw7125816 0.0 10121088
10:00+5˚wsw712510 0.0 10141155
13:00+6˚wsw711470 0.0 10151165
16:00+6˚wsw711470 0.0 10161263
19:00+6˚wsw613380 0.0 10191322
22:00+6˚wsw713410 0.0 10201057